ZHONGXING-2A (38352 NORAD) Tracking and Keplerian Element Data

This shows tracking and keplerian element data for the satellite.

Feedback or suggestion? Click here.




ElementValue
Catalog38352
NameZHONGXING-2A
Epoch Orbit4630
Epoch Day34.74860839
Epoch Year2025
RAAN95.6939
Inclination0.1618
Eccentricity0.0001516
Argument of Perigee226.5031
Mean Anonmoly179.662
Mean Motion1.00274126
Decay Rate-2.89E-06
L11 38352U 12028A 25034.74860839 -.00000289 00000+0 00000+0 0 9991
L22 38352 0.1618 95.6939 0001516 226.5031 179.6620 1.00274126 46309



Live tracking and technical data element details for ZHONGXING-2A (NORAD 38352). ZHONGXING-2A can be tracked NOW for your location showing map with azimuth and elevation plus other details from your city location.







IsCatalogInMostPopularTable: catalog: 38352, numindb: 587
Update: records affected: 1



GetName: 38352 ZHONGXING-2A

Hit Count: updated at: Thu, 15 May 2025 19:13:07 GMT